Notices

What's New in latest Release from April 7th, 2021:

- Updated Glossary, including Speed of Maximum Gust, and Total Hourly Precipitation

- Updated national and regional climate services offices contacts and prices information

- Addition of station inventory lists for 1981-2010, 1971-2000, and 1961-1990 Normals.

If you haven't already, please take our survey and provide feedback about our website: https://eccc.sondage-survey.ca/f/LanguageSelection.aspx?s=442ca660-fcf1-47c0-95a9-59707d6fd709

Hourly Data Report for April 05, 2021

CORNER BROOK
NEWFOUNDLAND
Current Station Operator: ECCC - MSC

48°56'00.000" N
57°55'00.000" W
151.80 m
8401298
71973
WKB

Download Data

Hourly Data (April 2021)
Hourly Data Report for April 5, 2021
TIME
LST
Temp Definition
°C
Dew Point Definition
°C
Rel Hum Definition
%
Precip. Amount Definition
mm

Wind Dir Definition
10's deg

Wind Spd Definition
km/h
Visibility Definition
km
Stn Press Definition
kPa
Hmdx Definition


Wind Chill Definition


Weather Definition


00:30 4.0 2.8 92 0.0 8 13   99.62     LegendNANA
01:30 4.8 3.4 91 0.0 4 14   99.58     LegendNANA
02:30 4.8 3.3 90 0.0 7 20   99.54     LegendNANA
03:30 4.2 2.8 90 0.0 7 18   99.54     LegendNANA
04:30 4.5 3.0 90 0.0 8 10   99.48     LegendNANA
05:30 4.5 3.0 90 0.0 3 5   99.49     LegendNANA
06:30 4.4 2.8 90 0.0 7 12   99.50     LegendNANA
07:30 4.9 3.3 89 0.0 8 17   99.49     LegendNANA
08:30 5.7 3.8 87 0.0 7 21   99.49     LegendNANA
09:30 6.9 4.2 83 0.0 7 16   99.47     LegendNANA
10:30 9.7 5.6 76 0.0 5 14   99.47     LegendNANA
11:30 10.5 5.3 70 0.0 6 14   99.41     LegendNANA
12:30 10.5 5.5 71 0.0 5 12   99.40     LegendNANA
13:30 10.2 5.4 72 0.0 4 15   99.38     LegendNANA
14:30 9.5 5.3 75 0.0 3 10   99.36     LegendNANA
15:30 9.1 4.9 75 0.0 5 8   99.36     LegendNANA
16:30 8.6 4.6 76 0.0 5 11   99.37     LegendNANA
17:30 7.6 4.2 79 0.0 3 11   99.40     LegendNANA
18:30 5.7 3.3 85 0.0 2 14   99.42     LegendNANA
19:30 4.6 2.8 88 0.0 3 9   99.44     LegendNANA
20:30 4.4 2.8 89 0.0 5 4   99.49     LegendNANA
21:30 3.8 2.5 91 0.0 6 10   99.48     LegendNANA
22:30 3.6 2.5 92 0.0 6 12   99.47     LegendNANA
23:30 3.5 2.4 93 0.0 3 10   99.44     LegendNANA

Notes on Data Quality.

Legend

  • E = Estimated
  • M = Missing
  • NA = Not Available*
  • [empty] = Indicates an unobserved value
Date modified: